GW7247 Weather Reports


Display with metric or nautical units.
time (UTC)temp
F
wind
direction
speed
MPH
gust
MPH
rain 1hr
in
rain 24hr
in
rain mn
in
humidity
%
barometer
mb
20260506024520 58 188 0.0 2.0 0.00 0.00 0.00 69 1007.8
20260506024004 58 131 0.0 1.0 0.00 0.00 0.00 68 1007.9
20260506023504 59 217 0.0 2.0 0.00 0.00 0.00 67 1007.8
20260506023012 59 217 0.0 2.0 0.00 0.00 0.00 67 1008.0
20260506022506 59 229 0.0 2.0 0.00 0.00 0.00 66 1007.8
20260506022013 60 186 0.0 2.0 0.00 0.00 0.00 66 1007.9
20260506021514 60 189 0.0 2.0 0.00 0.00 0.00 65 1008.0
20260506021007 61 205 0.0 2.0 0.00 0.00 0.00 64 1008.0
20260506020508 61 121 0.0 3.0 0.00 0.00 0.00 64 1007.9
20260506020021 61 254 0.0 3.0 0.00 0.00 0.00 64 1008.0
20260506015511 62 210 0.0 3.0 0.00 0.00 0.00 64 1008.0
20260506015011 62 210 1.0 3.0 0.00 0.00 0.00 63 1008.0
20260506014522 62 198 0.0 1.0 0.00 0.00 0.00 63 1008.0
20260506014009 62 195 0.0 1.0 0.00 0.00 0.00 63 1008.1
20260506013508 62 203 0.0 2.0 0.00 0.00 0.00 62 1008.0
20260506013009 62 169 0.0 2.0 0.00 0.00 0.00 63 1008.0
20260506012505 62 205 0.0 0.0 0.00 0.00 0.00 63 1007.9
20260506012007 63 205 0.0 0.0 0.00 0.00 0.00 62 1007.9
20260506011530 63 205 0.0 1.0 0.00 0.00 0.00 62 1007.9
20260506011007 63 188 0.0 1.0 0.00 0.00 0.00 62 1007.9
20260506010511 63 222 0.0 1.0 0.00 0.00 0.00 62 1007.8
20260506010020 63 112 0.0 1.0 0.00 0.00 0.00 62 1007.6
20260506005509 63 181 0.0 2.0 0.00 0.00 0.00 62 1007.7
20260506005008 63 181 0.0 2.0 0.00 0.00 0.00 61 1007.6
20260506004522 63 170 0.0 2.0 0.00 0.00 0.00 61 1007.6
20260506004010 64 137 0.0 3.0 0.00 0.00 0.00 61 1007.7
20260506003512 64 239 0.0 3.0 0.00 0.00 0.00 61 1007.7
20260506003022 64 252 1.0 5.0 0.00 0.00 0.00 60 1007.6
20260506002514 64 114 2.0 5.0 0.00 0.00 0.00 61 1007.5
20260506002011 64 241 0.0 1.0 0.00 0.00 0.00 60 1007.1
20260506001512 64 198 0.0 1.0 0.00 0.00 0.00 60 1007.0
20260506001006 64 221 0.0 1.0 0.00 0.00 0.00 59 1006.8
20260506000514 65 200 0.0 2.0 0.00 0.00 0.00 59 1006.6
20260506000023 65 55 1.0 2.0 0.00 0.00 0.00 58 1006.6
20260505235507 65 111 0.0 2.0 0.00 0.00 0.00 57 1006.5
20260505235008 66 119 0.0 4.0 0.00 0.00 0.00 57 1006.5
20260505234536 66 112 1.0 4.0 0.00 0.00 0.00 56 1006.2
20260505234009 67 70 0.0 2.0 0.00 0.00 0.00 58 1006.3
20260505233509 67 264 0.0 3.0 0.00 0.00 0.00 57 1006.5
20260505233024 67 264 0.0 6.0 0.00 0.00 0.00 56 1006.4
20260505232513 67 214 0.0 7.0 0.00 0.00 0.00 56 1006.6
20260505232009 66 203 3.0 7.0 0.00 0.00 0.00 56 1006.6
20260505231523 66 183 1.0 10.0 0.00 0.00 0.00 56 1006.5
20260505231009 66 250 2.0 10.0 0.00 0.00 0.00 57 1006.6
20260505230509 65 240 4.0 10.0 0.00 0.00 0.00 58 1006.6
20260505230025 63 253 2.0 11.0 0.00 0.00 0.00 60 1006.6
20260505225508 63 66 3.0 11.0 0.00 0.00 0.00 60 1007.2
20260505225009 63 207 4.0 10.0 0.00 0.00 0.00 60 1005.1
20260505224532 63 307 3.0 13.0 0.00 0.00 0.00 59 1004.7
20260505224008 63 194 6.0 13.0 0.00 0.00 0.00 59 1004.6
20260505223509 63 188 4.0 13.0 0.00 0.00 0.00 59 1004.6
20260505223024 64 230 5.0 16.0 0.00 0.00 0.00 58 1004.4
20260505222512 64 102 4.0 16.0 0.00 0.00 0.00 58 1004.5
20260505222012 64 225 5.0 14.0 0.00 0.00 0.00 59 1004.5
20260505221524 64 240 3.0 14.0 0.00 0.00 0.00 59 1004.5
20260505221009 64 135 6.0 20.0 0.00 0.00 0.00 58 1004.4
20260505220510 64 229 6.0 20.0 0.00 0.00 0.00 58 1004.3
20260505220023 64 191 4.0 20.0 0.00 0.00 0.00 58 1004.4
20260505215509 64 245 7.0 20.0 0.00 0.00 0.00 58 1004.2
20260505215007 64 201 5.0 17.0 0.00 0.00 0.00 59 1004.2
20260505214520 64 246 7.0 17.0 0.00 0.00 0.00 58 1004.2
20260505214009 64 295 7.0 15.0 0.00 0.00 0.00 58 1004.2
20260505213511 64 203 6.0 15.0 0.00 0.00 0.00 58 1004.2
20260505213024 64 208 4.0 15.0 0.00 0.00 0.00 59 1004.0
20260505212509 64 46 4.0 15.0 0.00 0.00 0.00 59 1004.0
20260505212015 64 185 5.0 15.0 0.00 0.00 0.00 59 1003.9
20260505211529 63 220 4.0 17.0 0.00 0.00 0.00 59 1003.9
20260505211010 64 255 5.0 17.0 0.00 0.00 0.00 59 1003.8
20260505210509 64 252 6.0 17.0 0.00 0.00 0.00 58 1003.9
20260505210030 65 227 5.0 15.0 0.00 0.00 0.00 56 1004.0
20260505205512 65 201 5.0 16.0 0.00 0.00 0.00 56 1004.0
20260505205011 66 58 7.0 16.0 0.00 0.00 0.00 55 1004.0
20260505204528 67 200 5.0 21.0 0.00 0.00 0.00 55 1003.8
20260505204010 67 236 6.0 21.0 0.00 0.00 0.00 55 1003.9
20260505203506 67 285 5.0 14.0 0.00 0.00 0.00 54 1004.0
20260505203016 67 200 5.0 15.0 0.00 0.00 0.00 54 1004.0
20260505202509 68 173 5.0 15.0 0.00 0.00 0.00 54 1004.0
20260505202010 68 225 4.0 13.0 0.00 0.00 0.00 54 1004.0
20260505201524 68 216 8.0 13.0 0.00 0.00 0.00 53 1004.0
20260505201011 69 245 6.0 13.0 0.00 0.00 0.00 52 1004.1
20260505200508 69 84 3.0 13.0 0.00 0.00 0.00 53 1004.1
20260505200026 69 184 6.0 11.0 0.00 0.00 0.00 53 1004.3
20260505195509 69 204 4.0 11.0 0.00 0.00 0.00 53 1004.2
20260505195010 69 208 5.0 12.0 0.00 0.00 0.00 53 1004.2
20260505194533 69 264 2.0 12.0 0.00 0.00 0.00 53 1004.3
20260505194011 69 217 5.0 9.0 0.00 0.00 0.00 53 1004.4
20260505193510 69 230 3.0 15.0 0.00 0.00 0.00 53 1004.4
20260505193026 69 116 4.0 15.0 0.00 0.00 0.00 53 1004.5
20260505192507 69 257 6.0 15.0 0.00 0.00 0.00 52 1004.6
20260505192010 69 174 3.0 12.0 0.00 0.00 0.00 53 1004.7
20260505191518 69 143 4.0 18.0 0.00 0.00 0.00 53 1004.7
20260505191007 69 174 6.0 18.0 0.00 0.00 0.00 52 1005.0
20260505190506 70 200 4.0 11.0 0.00 0.00 0.00 52 1005.0
20260505190025 70 211 4.0 11.0 0.00 0.00 0.00 51 1005.1
20260505185509 70 51 4.0 13.0 0.00 0.00 0.00 52 1005.1
20260505185012 70 210 4.0 15.0 0.00 0.00 0.00 52 1005.1
20260505184532 70 188 4.0 15.0 0.00 0.00 0.00 51 1005.2
20260505184014 70 124 3.0 14.0 0.00 0.00 0.00 51 1005.3
20260505183511 70 57 5.0 14.0 0.00 0.00 0.00 52 1005.3
20260505183027 69 319 5.0 17.0 0.00 0.00 0.00 51 1005.5
20260505182507 70 128 8.0 17.0 0.00 0.00 0.00 50 1005.6
20260505182012 71 179 5.0 13.0 0.00 0.00 0.00 50 1005.6
20260505181531 71 210 3.0 8.0 0.00 0.00 0.00 50 1005.5
20260505181012 71 218 3.0 10.0 0.00 0.00 0.00 50 1005.6
20260505180507 71 307 3.0 10.0 0.00 0.00 0.00 52 1005.7
20260505180020 70 196 4.0 10.0 0.00 0.00 0.00 53 1005.7
20260505175510 69 248 3.0 9.0 0.00 0.00 0.00 52 1005.9
20260505175007 69 183 3.0 10.0 0.00 0.00 0.00 54 1005.7
20260505174525 69 239 3.0 10.0 0.00 0.00 0.00 53 1005.7
20260505174011 70 225 3.0 14.0 0.00 0.00 0.00 51 1005.9
20260505173511 70 97 2.0 14.0 0.00 0.00 0.00 52 1005.9
20260505173027 71 167 3.0 11.0 0.00 0.00 0.00 49 1006.0
20260505172511 72 141 3.0 18.0 0.00 0.00 0.00 48 1005.9
20260505172011 72 19 3.0 18.0 0.00 0.00 0.00 49 1006.0
20260505171526 73 204 4.0 11.0 0.00 0.00 0.00 48 1006.0
20260505171011 73 200 2.0 8.0 0.00 0.00 0.00 48 1006.0
20260505170510 73 136 2.0 8.0 0.00 0.00 0.00 49 1006.1
20260505170028 73 122 2.0 11.0 0.00 0.00 0.00 48 1006.2
20260505165511 73 245 3.0 11.0 0.00 0.00 0.00 47 1006.3
20260505165009 73 161 2.0 7.0 0.00 0.00 0.00 49 1006.5
20260505164521 73 207 1.0 7.0 0.00 0.00 0.00 49 1006.5
20260505164009 73 236 1.0 8.0 0.00 0.00 0.00 49 1006.6
20260505163509 72 40 2.0 8.0 0.00 0.00 0.00 49 1006.6
20260505163024 72 100 1.0 8.0 0.00 0.00 0.00 53 1006.8
20260505162508 71 100 2.0 8.0 0.00 0.00 0.00 51 1006.9
20260505162012 72 167 2.0 6.0 0.00 0.00 0.00 50 1007.0
20260505161529 72 245 2.0 6.0 0.00 0.00 0.00 50 1007.0
20260505161007 72 237 0.0 7.0 0.00 0.00 0.00 53 1007.0
20260505160510 71 121 1.0 7.0 0.00 0.00 0.00 52 1007.2
20260505153024 69 263 4.0 7.0 0.00 0.00 0.00 52 1007.6
20260505152509 68 201 2.0 7.0 0.00 0.00 0.00 53 1007.7
20260505152012 68 250 3.0 6.0 0.00 0.00 0.00 54 1007.9
20260505151527 67 167 1.0 6.0 0.00 0.00 0.00 55 1007.9
20260505151010 66 170 1.0 6.0 0.00 0.00 0.00 57 1007.9
20260505150511 65 187 2.0 6.0 0.00 0.00 0.00 59 1008.0
20260505140510 68 179 1.0 6.0 0.00 0.00 0.00 51 1007.3
20260505125011 61 20 2.0 8.0 0.00 0.00 0.00 61 1007.8
20260505124539 61 96 1.0 5.0 0.00 0.00 0.00 61 1007.8
20260505124009 61 179 2.0 5.0 0.00 0.00 0.00 60 1007.8
20260505123512 60 249 2.0 6.0 0.00 0.00 0.00 60 1007.8
20260505123026 60 136 1.0 6.0 0.00 0.00 0.00 61 1007.9
20260505122511 60 82 0.0 3.0 0.00 0.00 0.00 61 1007.8
20260505122011 59 52 1.0 3.0 0.00 0.00 0.00 62 1007.7
20260505121530 59 102 0.0 8.0 0.00 0.00 0.00 62 1007.8
20260505121013 59 141 1.0 8.0 0.00 0.00 0.00 63 1007.8
20260505120510 58 76 1.0 6.0 0.00 0.00 0.00 63 1007.9
20260505120024 58 236 0.0 4.0 0.00 0.00 0.00 65 1007.9
20260505115509 57 224 1.0 8.0 0.00 0.00 0.00 65 1008.0
20260505115010 57 182 2.0 8.0 0.00 0.00 0.00 66 1008.1
20260505114526 56 202 0.0 4.0 0.00 0.00 0.00 67 1008.1
20260505114012 56 219 1.0 4.0 0.00 0.00 0.00 68 1008.1
20260505113509 55 276 1.0 3.0 0.00 0.00 0.00 68 1008.3
20260505113029 54 217 1.0 3.0 0.00 0.00 0.00 69 1008.4
20260505112511 54 77 1.0 2.0 0.00 0.00 0.00 71 1008.3
20260505112008 53 104 0.0 2.0 0.00 0.00 0.00 72 1008.2
20260505111536 53 213 0.0 3.0 0.00 0.00 0.00 73 1008.2
20260505111008 52 65 0.0 6.0 0.00 0.00 0.00 74 1008.2
20260505110507 52 200 2.0 6.0 0.00 0.00 0.00 74 1008.2
20260505102010 48 141 0.0 0.0 0.00 0.00 0.00 78 1008.2
20260505101528 48 141 0.0 0.0 0.00 0.00 0.00 78 1008.2
20260505101007 48 141 0.0 0.0 0.00 0.00 0.00 78 1008.2
20260505100510 48 141 0.0 0.0 0.00 0.00 0.00 77 1008.2
20260505100036 48 141 0.0 0.0 0.00 0.00 0.00 78 1008.1
20260505095508 48 141 0.0 0.0 0.00 0.00 0.00 77 1008.2
20260505095010 48 141 0.0 0.0 0.00 0.00 0.00 77 1008.1
20260505094522 48 141 0.0 0.0 0.00 0.00 0.00 76 1008.1
20260505094010 48 141 0.0 0.0 0.00 0.00 0.00 76 1008.1
20260505093503 49 179 0.0 0.0 0.00 0.00 0.00 76 1008.1
20260505093013 49 179 0.0 0.0 0.00 0.00 0.00 76 1008.2
20260505092504 49 179 0.0 0.0 0.00 0.00 0.00 75 1008.1
20260505092006 49 179 0.0 0.0 0.00 0.00 0.00 74 1008.2
20260505091515 50 179 0.0 0.0 0.00 0.00 0.00 73 1008.2
20260505091004 50 179 0.0 0.0 0.00 0.00 0.00 71 1008.2
20260505090507 50 179 0.0 0.0 0.00 0.00 0.00 70 1008.3
20260505090017 51 148 0.0 0.0 0.00 0.00 0.00 68 1008.3
20260505085508 51 148 0.0 0.0 0.00 0.00 0.00 67 1008.3
20260505085011 52 148 0.0 1.0 0.00 0.00 0.00 65 1008.3
20260505084523 52 195 0.0 1.0 0.00 0.00 0.00 64 1008.4
20260505084006 53 193 0.0 1.0 0.00 0.00 0.00 63 1008.3
20260505083514 53 192 0.0 1.0 0.00 0.00 0.00 62 1008.3
20260505083033 54 206 0.0 1.0 0.00 0.00 0.00 62 1008.3
20260505082507 54 219 0.0 1.0 0.00 0.00 0.00 61 1008.4
20260505082006 54 219 0.0 2.0 0.00 0.00 0.00 61 1008.5
20260505081512 54 244 0.0 2.0 0.00 0.00 0.00 60 1008.4
20260505081004 54 237 1.0 3.0 0.00 0.00 0.00 60 1008.5
20260505080504 54 246 0.0 3.0 0.00 0.00 0.00 60 1008.4
20260505080010 54 201 1.0 3.0 0.00 0.00 0.00 60 1008.4
20260505075507 55 193 1.0 4.0 0.00 0.00 0.00 59 1008.4
20260505075008 55 217 1.0 4.0 0.00 0.00 0.00 59 1008.4
20260505074516 55 276 2.0 4.0 0.00 0.00 0.00 58 1008.5
20260505074007 55 224 2.0 4.0 0.00 0.00 0.00 58 1008.5
20260505073508 55 256 2.0 6.0 0.00 0.00 0.00 58 1008.5
20260505073022 55 211 2.0 6.0 0.00 0.00 0.00 58 1008.5
20260505072511 56 238 1.0 6.0 0.00 0.00 0.00 57 1008.4
20260505072011 56 200 1.0 6.0 0.00 0.00 0.00 57 1008.3
20260505071535 56 229 2.0 8.0 0.00 0.00 0.00 56 1008.3
20260505071013 56 205 4.0 8.0 0.00 0.00 0.00 56 1008.2
20260505070506 56 198 2.0 5.0 0.00 0.00 0.00 56 1008.3
20260505070010 56 241 2.0 8.0 0.00 0.00 0.00 55 1008.2
20260505065507 57 255 2.0 8.0 0.00 0.00 0.00 55 1008.2
20260505065010 57 231 2.0 7.0 0.00 0.00 0.00 55 1008.1
20260505064008 57 198 2.0 6.0 0.00 0.00 0.00 54 1008.1
20260505063508 57 232 2.0 7.0 0.00 0.00 0.00 54 1008.1
20260505063029 57 212 3.0 7.0 0.00 0.00 0.00 54 1008.0
20260505062511 57 252 3.0 7.0 0.00 0.00 0.00 53 1008.0
20260505062013 58 205 3.0 7.0 0.00 0.00 0.00 53 1008.0
20260505061532 58 251 3.0 10.0 0.00 0.00 0.00 53 1008.1
20260505061006 58 229 4.0 10.0 0.00 0.00 0.00 53 1008.1
20260505060510 58 188 2.0 6.0 0.00 0.00 0.00 53 1008.1
20260505060027 58 221 2.0 6.0 0.00 0.00 0.00 52 1008.1
20260505055512 58 234 3.0 10.0 0.00 0.00 0.00 52 1008.1
20260505055006 58 240 3.0 10.0 0.00 0.00 0.00 52 1008.1
20260505054514 58 205 2.0 5.0 0.00 0.00 0.00 52 1008.1
20260505054008 59 198 2.0 5.0 0.00 0.00 0.00 51 1008.1
20260505053507 59 190 2.0 12.0 0.00 0.00 0.00 51 1008.1
20260505053014 59 256 2.0 12.0 0.00 0.00 0.00 51 1008.1
20260505052510 59 221 4.0 7.0 0.00 0.00 0.00 51 1008.0
20260505052009 59 244 2.0 8.0 0.00 0.00 0.00 51 1008.0
20260505051534 59 217 3.0 8.0 0.00 0.00 0.00 50 1008.1
20260505051009 59 212 3.0 8.0 0.00 0.00 0.00 50 1008.0
20260505050508 60 232 4.0 9.0 0.00 0.00 0.00 50 1008.1
20260505041540 60 263 2.0 8.0 0.00 0.00 0.00 50 1007.8
20260505041009 60 228 2.0 8.0 0.00 0.00 0.00 50 1007.7
20260505040509 60 217 3.0 8.0 0.00 0.00 0.00 50 1007.6
20260505040022 60 245 4.0 8.0 0.00 0.00 0.00 50 1007.6
20260505035507 60 207 4.0 8.0 0.00 0.00 0.00 50 1007.6
20260505035011 60 215 2.0 10.0 0.00 0.00 0.00 50 1007.5
20260505034526 59 206 4.0 10.0 0.00 0.00 0.00 51 1007.6
20260505034010 59 250 3.0 11.0 0.00 0.00 0.00 51 1007.6
20260505033511 59 219 4.0 11.0 0.00 0.00 0.00 51 1007.6
20260505033028 59 238 3.0 7.0 0.00 0.00 0.00 52 1007.6
20260505032513 58 254 2.0 7.0 0.00 0.00 0.00 53 1007.6
20260505032007 58 246 3.0 7.0 0.00 0.00 0.00 53 1007.6
20260505031526 58 193 2.0 7.0 0.00 0.00 0.00 54 1007.5
20260505031007 57 248 2.0 6.0 0.00 0.00 0.00 55 1007.6
20260505030509 57 227 3.0 8.0 0.00 0.00 0.00 56 1007.5
20260505030020 56 214 3.0 10.0 0.00 0.00 0.00 57 1007.5
20260505025514 56 217 2.0 10.0 0.00 0.00 0.00 59 1007.5
20260505025007 55 174 2.0 10.0 0.00 0.00 0.00 60 1007.6